Date String (YYYY-MM-DD hh:mm:ss) UTC,Instrument flags,Ambient pressure (hPa),Sample flow (lpm),Bypass flow (lpm),Sample temperature (°C),Ambient temperature (°C),ASC tube jacket temperature (°C),LED temperature (°C),Box temperature (°C),Sample RH (%),Mass concentration (μg/m³),Mass concentration (μg/m³)
DateTimeUTC,F1_M11,P_M11,Q1_M11,Q2_M11,T1_M11,T2_M11,T3_M11,T4_M11,T5_M11,U1_M11,X2_M11,X0_M11
2021-08-12 16:00:00,FlowAlarm;OPCInstrumentWarning,0833.1,5.00,0.00,29.3,26.9,00.0,38.6,31.1,22.3,0031.96,0039.33
2021-08-12 16:01:00,FlowAlarm;OPCInstrumentWarning,0833.2,5.01,0.00,29.3,27.3,00.0,38.6,31.2,22.5,0031.95,0038.39
2021-08-12 16:02:00,FlowAlarm;OPCInstrumentWarning,0833.2,5.00,0.00,29.3,27.7,00.0,38.5,31.3,22.3,0031.97,0038.07
2021-08-12 16:03:00,FlowAlarm;OPCInstrumentWarning,0833.2,5.00,0.00,29.4,28.0,00.0,38.5,31.4,22.5,0032.02,0038.16
2021-08-12 16:04:00,FlowAlarm;OPCInstrumentWarning,0833.2,4.99,0.00,29.4,28.2,00.0,38.6,31.4,22.4,0032.16,0039.09
2021-08-12 16:05:00,FlowAlarm;OPCInstrumentWarning,0833.2,5.01,0.00,29.5,28.4,00.0,38.6,31.5,22.3,0032.30,0039.72
2021-08-12 16:06:00,FlowAlarm;OPCInstrumentWarning,0833.2,4.99,0.00,29.5,28.6,00.0,38.6,31.6,22.9,0032.39,0039.22
2021-08-12 16:07:00,FlowAlarm;OPCInstrumentWarning,0833.3,4.99,0.00,29.6,28.8,00.0,38.6,31.6,23.5,0032.39,0040.31
2021-08-12 16:08:00,FlowAlarm;OPCInstrumentWarning,0833.2,5.01,0.00,29.6,28.8,00.0,38.6,31.7,23.1,0032.49,0042.67
2021-08-12 16:09:00,FlowAlarm;OPCInstrumentWarning,0833.2,4.99,0.00,29.6,27.5,00.0,38.6,31.3,23.1,0032.61,0043.10
2021-08-12 16:10:00,FlowAlarm;OPCInstrumentWarning,0833.2,5.00,0.00,29.5,26.2,00.0,38.6,31.0,22.8,0032.74,0043.64
2021-08-12 16:11:00,FlowAlarm;OPCInstrumentWarning,0833.3,5.00,0.00,29.4,26.4,00.0,38.6,31.0,22.7,0032.95,0044.33
2021-08-12 16:12:00,FlowAlarm;OPCInstrumentWarning,0833.3,5.00,0.00,29.3,26.8,00.0,38.6,31.0,22.6,0033.03,0045.79
2021-08-12 16:13:00,FlowAlarm;OPCInstrumentWarning,0833.3,5.00,0.00,29.3,27.2,00.0,38.5,31.1,22.7,0033.14,0046.61
2021-08-12 16:14:00,FlowAlarm;OPCInstrumentWarning,0833.4,5.00,0.00,29.3,27.6,00.0,38.5,31.2,23.5,0033.21,0047.08
2021-08-12 16:15:00,FlowAlarm;OPCInstrumentWarning,0833.3,4.99,0.00,29.3,27.9,00.0,38.5,31.3,23.5,0033.15,0046.57
2021-08-12 16:16:00,FlowAlarm;OPCInstrumentWarning,0833.4,5.00,0.00,29.4,28.2,00.0,38.5,31.4,22.8,0033.13,0046.43
2021-08-12 16:17:00,FlowAlarm;OPCInstrumentWarning,0833.4,4.99,0.00,29.4,28.4,00.0,38.5,31.5,22.8,0033.06,0046.47
2021-08-12 16:18:00,FlowAlarm;OPCInstrumentWarning,0833.4,5.01,0.00,29.5,28.6,00.0,38.6,31.5,22.2,0033.09,0045.23
2021-08-12 16:19:00,FlowAlarm;OPCInstrumentWarning,0833.4,4.99,0.00,29.5,28.3,00.0,38.6,31.5,22.5,0033.08,0043.50
2021-08-12 16:20:00,FlowAlarm;OPCInstrumentWarning,0833.4,5.00,0.00,29.5,26.6,00.0,38.5,31.1,23.0,0033.05,0043.15
2021-08-12 16:21:00,FlowAlarm;OPCInstrumentWarning,0833.4,4.99,0.00,29.3,25.9,00.0,38.5,30.9,23.3,0033.02,0043.49
2021-08-12 16:22:00,FlowAlarm;OPCInstrumentWarning,0833.4,5.01,0.00,29.3,26.3,00.0,38.5,30.9,23.2,0032.96,0043.50
2021-08-12 16:23:00,FlowAlarm;OPCInstrumentWarning,0833.4,4.98,0.00,29.2,26.7,00.0,38.5,31.0,23.2,0032.94,0042.17
2021-08-12 16:24:00,FlowAlarm;OPCInstrumentWarning,0833.4,5.00,0.00,29.2,27.2,00.0,38.5,31.1,23.2,0032.88,0041.59
2021-08-12 16:25:00,FlowAlarm;OPCInstrumentWarning,0833.4,5.01,0.00,29.2,27.6,00.0,38.4,31.2,23.3,0032.80,0040.89
2021-08-12 16:26:00,FlowAlarm;OPCInstrumentWarning,0833.4,4.99,0.00,29.3,27.9,00.0,38.4,31.3,22.2,0032.76,0040.94
2021-08-12 16:27:00,FlowAlarm;OPCInstrumentWarning,0833.4,5.00,0.00,29.3,28.2,00.0,38.4,31.3,22.1,0032.69,0040.85
2021-08-12 16:28:00,FlowAlarm;OPCInstrumentWarning,0833.4,4.99,0.00,29.4,28.4,00.0,38.5,31.4,22.7,0032.71,0041.61
2021-08-12 16:29:00,FlowAlarm;OPCInstrumentWarning,0833.4,5.02,0.00,29.4,28.6,00.0,38.5,31.5,22.8,0032.60,0041.90
2021-08-12 16:30:00,FlowAlarm;OPCInstrumentWarning,0833.5,5.00,0.00,29.5,28.5,00.0,38.5,31.5,22.8,0032.52,0041.21
2021-08-12 16:31:00,FlowAlarm;OPCInstrumentWarning,0833.4,5.00,0.00,29.4,27.1,00.0,38.5,31.1,22.9,0032.55,0041.02
2021-08-12 16:32:00,FlowAlarm;OPCInstrumentWarning,0833.4,4.98,0.00,29.3,26.0,00.0,38.5,30.9,22.8,0032.49,0039.74
2021-08-12 16:33:00,FlowAlarm;OPCInstrumentWarning,0833.4,5.01,0.00,29.2,26.3,00.0,38.5,30.9,23.5,0032.45,0039.44
2021-08-12 16:34:00,FlowAlarm;OPCInstrumentWarning,0833.4,5.00,0.00,29.2,26.7,00.0,38.4,30.9,23.5,0032.46,0039.77
2021-08-12 16:35:00,FlowAlarm;OPCInstrumentWarning,0833.5,5.00,0.00,29.1,27.1,00.0,38.4,31.0,23.4,0032.44,0039.63
2021-08-12 16:36:00,FlowAlarm;OPCInstrumentWarning,0833.4,4.99,0.00,29.2,27.5,00.0,38.4,31.1,23.5,0032.46,0040.15
2021-08-12 16:37:00,FlowAlarm;OPCInstrumentWarning,0833.5,5.01,0.00,29.2,27.8,00.0,38.4,31.2,22.6,0032.48,0040.16
2021-08-12 16:38:00,FlowAlarm;OPCInstrumentWarning,0833.5,4.99,0.00,29.3,28.1,00.0,38.4,31.3,23.3,0032.50,0040.94
2021-08-12 16:39:00,FlowAlarm;OPCInstrumentWarning,0833.5,5.01,0.00,29.3,28.3,00.0,38.4,31.4,23.6,0032.53,0040.73
2021-08-12 16:40:00,FlowAlarm;OPCInstrumentWarning,0833.5,5.00,0.00,29.4,28.5,00.0,38.4,31.4,23.5,0032.66,0040.86
2021-08-12 16:41:00,FlowAlarm;OPCInstrumentWarning,0833.5,5.00,0.00,29.4,28.6,00.0,38.5,31.5,24.3,0032.65,0041.24
2021-08-12 16:42:00,FlowAlarm;OPCInstrumentWarning,0833.4,5.00,0.00,29.4,27.4,00.0,38.5,31.2,24.0,0032.56,0041.35
2021-08-12 16:43:00,FlowAlarm;OPCInstrumentWarning,0833.5,5.00,0.00,29.3,26.1,00.0,38.4,30.8,23.6,0032.54,0041.51
2021-08-12 16:44:00,FlowAlarm;OPCInstrumentWarning,0833.5,5.00,0.00,29.2,26.3,00.0,38.4,30.8,23.5,0032.49,0041.54
2021-08-12 16:45:00,FlowAlarm;OPCInstrumentWarning,0833.4,5.01,0.00,29.1,26.6,00.0,38.4,30.9,24.4,0032.43,0041.71
2021-08-12 16:46:00,FlowAlarm;OPCInstrumentWarning,0833.5,5.01,0.00,29.1,27.1,00.0,38.4,31.0,24.1,0032.34,0041.90
2021-08-12 16:47:00,FlowAlarm;OPCInstrumentWarning,0833.5,5.00,0.00,29.1,27.5,00.0,38.4,31.1,23.9,0032.15,0040.92
2021-08-12 16:48:00,FlowAlarm;OPCInstrumentWarning,0833.5,4.99,0.00,29.2,27.8,00.0,38.4,31.2,23.4,0031.97,0040.64
2021-08-12 16:49:00,FlowAlarm;OPCInstrumentWarning,0833.5,4.99,0.00,29.2,28.1,00.0,38.4,31.2,23.3,0031.82,0039.54
2021-08-12 16:50:00,FlowAlarm;OPCInstrumentWarning,0833.6,5.01,0.00,29.3,28.3,00.0,38.4,31.3,23.6,0031.62,0038.87
2021-08-12 16:51:00,FlowAlarm;OPCInstrumentWarning,0833.5,4.99,0.00,29.3,28.1,00.0,38.4,31.3,23.2,0031.40,0038.35
2021-08-12 16:52:00,FlowAlarm;OPCInstrumentWarning,0833.5,5.02,0.00,29.3,26.5,00.0,38.4,30.9,23.7,0031.23,0038.75
2021-08-12 16:53:00,FlowAlarm;OPCInstrumentWarning,0833.6,4.99,0.00,29.1,25.9,00.0,38.4,30.7,23.6,0031.22,0039.86
2021-08-12 16:54:00,FlowAlarm;OPCInstrumentWarning,0833.5,5.01,0.00,29.1,26.3,00.0,38.3,30.8,23.3,0031.11,0039.80
2021-08-12 16:55:00,FlowAlarm;OPCInstrumentWarning,0833.6,5.01,0.00,29.0,26.7,00.0,38.3,30.8,23.4,0031.02,0040.16
2021-08-12 16:56:00,FlowAlarm;OPCInstrumentWarning,0833.5,4.99,0.00,29.0,27.1,00.0,38.3,30.9,23.4,0030.84,0040.09
2021-08-12 16:57:00,FlowAlarm;OPCInstrumentWarning,0833.5,5.01,0.00,29.0,27.5,00.0,38.3,31.0,23.5,0030.76,0040.52
2021-08-12 16:58:00,FlowAlarm;OPCInstrumentWarning,0833.6,4.99,0.00,29.1,27.8,00.0,38.3,31.1,23.7,0030.70,0040.65
2021-08-12 16:59:00,FlowAlarm;OPCInstrumentWarning,0833.5,5.02,0.00,29.2,28.1,00.0,38.3,31.2,23.4,0030.70,0040.21
